CW9865 Weather Reports


Display with metric or nautical units.
time (UTC)temp
F
wind
direction
speed
MPH
gust
MPH
rain 1hr
in
rain 24hr
in
rain mn
in
humidity
%
barometer
mb
20260506182459 57 119 0.0 3.0 0.08 0.55 0.51 99 1004.5
20260506181559 56 115 0.0 2.0 0.10 0.55 0.51 99 1004.0
20260506181008 56 115 0.0 2.0 0.10 0.55 0.51 99 1004.8
20260506180120 56 115 0.0 0.0 0.10 0.54 0.50 99 1004.1
20260506180116 56 115 0.0 0.0 0.10 0.54 0.50 99 1004.7
20260506175459 55 115 0.0 0.0 0.10 0.53 0.49 98 1004.9
20260506174608 55 115 0.0 0.0 0.09 0.51 0.47 98 1004.2
20260506173959 55 115 0.0 0.0 0.10 0.50 0.46 98 1004.8
20260506173123 55 115 0.0 0.0 0.09 0.48 0.44 98 1004.2
20260506172959 55 115 0.0 0.0 0.10 0.48 0.44 98 1005.0
20260506172500 54 115 0.0 0.0 0.09 0.47 0.43 98 1005.1
20260506171623 54 115 0.0 0.0 0.09 0.45 0.41 98 1004.4
20260506171620 54 115 0.0 0.0 0.09 0.45 0.41 98 1005.1
20260506170958 54 115 0.0 0.0 0.09 0.45 0.41 98 1005.0
20260506170106 53 115 0.0 0.0 0.09 0.44 0.40 98 1004.3
20260506165459 53 115 0.0 0.0 0.09 0.43 0.39 98 1005.2
20260506164558 53 115 0.0 0.0 0.09 0.42 0.38 98 1004.5
20260506164459 53 115 0.0 0.0 0.08 0.41 0.37 98 1005.3
20260506163958 53 115 0.0 0.0 0.07 0.40 0.36 98 1005.2
20260506163106 53 115 0.0 2.0 0.07 0.39 0.35 98 1004.6
20260506163000 53 115 0.0 2.0 0.06 0.38 0.34 98 1005.4
20260506162508 53 115 0.0 3.0 0.06 0.37 0.33 98 1005.4
20260506161600 53 86 0.0 0.0 0.06 0.36 0.32 98 1004.5
20260506161457 53 86 0.0 0.0 0.06 0.36 0.32 98 1005.3
20260506160108 52 86 0.0 2.0 0.07 0.35 0.31 97 1004.4
20260506154558 52 56 0.0 2.0 0.07 0.33 0.28 97 1004.6
20260506154457 52 56 0.0 2.0 0.07 0.33 0.29 97 1005.4
20260506153057 52 65 0.0 1.0 0.08 0.32 0.28 97 1004.8
20260506152958 53 65 0.0 1.0 0.08 0.32 0.28 97 1005.7
20260506152458 53 65 0.0 1.0 0.09 0.31 0.27 97 1005.8
20260506151558 53 65 0.0 3.0 0.10 0.30 0.26 97 1005.0
20260506151457 53 65 0.0 3.0 0.10 0.30 0.26 98 1006.0
20260506151015 53 107 0.0 6.0 0.10 0.29 0.25 98 1006.0
20260506145957 53 70 0.0 1.0 0.11 0.28 0.24 98 1006.0
20260506145457 52 71 0.0 2.0 0.11 0.27 0.23 98 1006.0
20260506144558 52 71 0.0 0.0 0.11 0.26 0.22 98 1005.4
20260506144457 52 71 0.0 0.0 0.11 0.26 0.22 97 1006.3
20260506143058 51 71 0.0 1.0 0.10 0.24 0.20 97 1005.6
20260506142957 51 71 0.0 1.0 0.10 0.24 0.20 97 1006.5
20260506142500 51 71 0.0 1.0 0.08 0.22 0.18 97 1006.7
20260506141557 52 71 0.0 0.0 0.07 0.20 0.16 97 1006.0
20260506140059 52 71 0.0 1.0 0.04 0.17 0.13 97 1006.1
20260506135959 52 71 0.0 2.0 0.04 0.17 0.13 97 1007.0
20260506135458 52 71 0.0 2.0 0.03 0.16 0.12 97 1006.9
20260506134618 52 71 0.0 0.0 0.03 0.15 0.11 97 1006.0
20260506133957 52 71 0.0 2.0 0.02 0.14 0.10 97 1006.7
20260506133058 52 71 0.0 0.0 0.03 0.14 0.10 97 1005.7
20260506132957 51 71 0.0 0.0 0.03 0.14 0.10 97 1006.5
20260506132457 51 71 0.0 0.0 0.03 0.14 0.10 97 1006.5
20260506131610 51 71 0.0 0.0 0.03 0.13 0.09 97 1005.5
20260506131503 51 71 0.0 0.0 0.04 0.13 0.09 97 1005.5
20260506130958 51 71 0.0 0.0 0.04 0.13 0.09 97 1006.3
20260506130058 51 71 0.0 0.0 0.05 0.13 0.09 97 1005.6
20260506125958 51 71 0.0 0.0 0.06 0.13 0.09 97 1006.4
20260506124600 51 71 0.0 0.0 0.06 0.12 0.08 97 1005.8
20260506124457 51 71 0.0 0.0 0.06 0.12 0.08 97 1006.7
20260506123957 51 71 0.0 1.0 0.06 0.12 0.08 96 1006.8
20260506123057 51 71 0.0 0.0 0.06 0.11 0.07 96 1006.0
20260506122957 51 71 0.0 0.0 0.06 0.11 0.07 96 1006.9
20260506122530 51 71 0.0 2.0 0.06 0.11 0.07 96 1007.1
20260506121606 52 71 0.0 3.0 0.05 0.10 0.06 96 1006.3
20260506121457 52 94 0.0 0.0 0.04 0.09 0.05 96 1007.4
20260506120022 52 94 0.0 0.0 0.02 0.07 0.03 97 1007.3
20260506115458 52 94 0.0 1.0 0.02 0.07 0.03 97 1007.3
20260506114558 51 94 0.0 0.0 0.02 0.06 0.02 97 1006.2
20260506114500 51 94 0.0 0.0 0.02 0.06 0.02 97 1007.2
20260506113957 51 94 0.0 0.0 0.02 0.06 0.02 97 1007.1
20260506113058 51 94 0.0 0.0 0.01 0.05 0.01 97 1006.1
20260506112957 51 94 0.0 0.0 0.01 0.05 0.01 96 1007.0
20260506112458 51 94 0.0 0.0 0.01 0.05 0.01 96 1006.9
20260506111613 51 94 0.0 0.0 0.01 0.05 0.01 96 1006.0
20260506111457 51 94 0.0 2.0 0.01 0.05 0.01 96 1006.9
20260506110958 50 94 0.0 3.0 0.01 0.05 0.01 96 1006.8
20260506110059 50 171 0.0 3.0 0.01 0.05 0.01 95 1005.9
20260506110000 50 171 0.0 3.0 0.01 0.05 0.01 95 1006.8
20260506105458 50 290 0.0 0.0 0.01 0.05 0.01 95 1006.7
20260506105000 50 290 0.0 2.0 0.00 0.04 0.00 95 1006.8
20260506103957 50 290 0.0 2.0 0.00 0.04 0.00 95 1006.8
20260506103105 50 290 0.0 0.0 0.00 0.04 0.00 94 1006.0
20260506101957 50 290 0.0 2.0 0.00 0.04 0.00 94 1006.5
20260506101557 50 290 0.0 2.0 0.00 0.04 0.00 94 1005.8
20260506100101 50 290 0.0 0.0 0.00 0.04 0.00 93 1005.9
20260506095458 50 290 0.0 0.0 0.00 0.07 0.00 93 1006.7
20260506094958 50 290 0.0 0.0 0.00 0.07 0.00 93 1006.7
20260506093958 50 290 0.0 0.0 0.00 0.07 0.00 92 1006.6
20260506093458 50 290 0.0 0.0 0.00 0.07 0.00 92 1006.4
20260506092458 50 290 0.0 0.0 0.00 0.07 0.00 92 1006.6
20260506091958 50 290 0.0 0.0 0.00 0.07 0.00 92 1006.4
20260506091558 50 290 0.0 0.0 0.00 0.07 0.00 92 1005.5
20260506091003 50 290 0.0 0.0 0.00 0.07 0.00 92 1006.5
20260506090458 50 290 0.0 2.0 0.00 0.07 0.00 92 1006.3
20260506085000 50 290 0.0 0.0 0.00 0.07 0.00 92 1007.1
20260506084605 50 290 0.0 0.0 0.00 0.07 0.00 92 1006.0
20260506083957 50 290 0.0 0.0 0.00 0.07 0.00 92 1006.9
20260506083458 50 290 0.0 0.0 0.00 0.07 0.00 91 1007.2
20260506082457 50 290 0.0 0.0 0.00 0.07 0.00 91 1007.0
20260506081658 50 290 0.0 0.0 0.00 0.07 0.00 91 1006.2
20260506080957 50 290 0.0 0.0 0.00 0.07 0.00 91 1007.4
20260506080458 50 290 0.0 0.0 0.00 0.07 0.00 91 1007.3
20260506073456 50 290 0.0 0.0 0.00 0.07 0.00 90 1007.8
20260506072457 50 290 0.0 0.0 0.00 0.07 0.00 90 1007.9
20260506071957 50 290 0.0 0.0 0.00 0.07 0.00 90 1007.8
20260506070957 50 290 0.0 0.0 0.00 0.07 0.00 89 1007.7
20260506070457 50 290 0.0 0.0 0.00 0.07 0.00 89 1007.5
20260506070124 51 290 0.0 0.0 0.00 0.07 0.00 89 1006.8
20260506062000 51 290 0.0 0.0 0.00 0.07 0.00 88 1008.1
20260506061557 51 290 0.0 0.0 0.00 0.07 0.00 88 1007.2
20260506061458 51 290 0.0 0.0 0.00 0.07 0.00 88 1008.1
20260506060456 51 290 0.0 2.0 0.00 0.07 0.00 89 1008.2
20260506044602 52 290 0.0 1.0 0.00 0.07 0.00 89 1007.8
20260506044501 52 290 0.0 1.0 0.00 0.07 0.00 88 1008.6
20260506044014 52 290 0.0 1.0 0.00 0.07 0.00 88 1008.6
20260506043104 52 290 0.0 2.0 0.00 0.07 0.00 87 1007.7
20260506043000 52 290 0.0 2.0 0.00 0.07 0.00 87 1008.5
20260506042501 52 290 0.0 2.0 0.00 0.07 0.00 87 1008.5
20260506041621 52 290 0.0 2.0 0.00 0.07 0.00 87 1007.6
20260506041504 52 290 0.0 2.0 0.00 0.07 0.00 87 1007.7
20260506041002 53 290 0.0 3.0 0.00 0.07 0.00 87 1008.6
20260506040005 53 279 1.0 2.0 0.00 0.07 0.00 87 1009.0
20260506035502 53 279 0.0 2.0 0.00 0.07 0.07 86 1008.7
20260506034603 54 277 0.0 2.0 0.00 0.07 0.07 85 1007.8
20260506034500 54 277 0.0 2.0 0.00 0.07 0.07 85 1008.7
20260506033100 54 281 0.0 4.0 0.00 0.07 0.07 85 1008.0
20260506033038 54 281 1.0 4.0 0.00 0.07 0.07 86 1009.0
20260506031602 54 275 1.0 3.0 0.00 0.07 0.07 85 1007.9
20260506031500 54 272 1.0 3.0 0.00 0.07 0.07 85 1008.9
20260506031001 54 271 1.0 5.0 0.00 0.07 0.07 85 1008.8
20260506030100 55 288 1.0 9.0 0.00 0.07 0.07 84 1007.7
20260506030003 55 288 1.0 9.0 0.00 0.07 0.07 85 1007.8
20260506025008 55 288 1.0 4.0 0.00 0.07 0.07 85 1008.5
20260506024607 55 287 1.0 3.0 0.00 0.07 0.07 84 1007.6
20260506024500 56 287 1.0 3.0 0.00 0.07 0.07 84 1008.4
20260506024000 56 302 1.0 3.0 0.00 0.07 0.07 85 1008.4
20260506023105 57 318 0.0 9.0 0.01 0.07 0.07 87 1007.6
20260506023000 57 318 1.0 9.0 0.01 0.07 0.07 87 1008.4
20260506022501 57 327 1.0 9.0 0.01 0.07 0.07 88 1008.5
20260506021600 58 286 0.0 5.0 0.01 0.07 0.07 89 1007.7
20260506021500 58 286 1.0 5.0 0.01 0.07 0.07 89 1008.6
20260506021038 58 284 1.0 5.0 0.01 0.07 0.07 89 1008.7
20260506020111 59 300 1.0 4.0 0.01 0.07 0.07 87 1007.6
20260506020002 59 300 0.0 4.0 0.01 0.07 0.07 87 1008.5
20260506015501 59 248 0.0 2.0 0.01 0.07 0.07 87 1008.3
20260506014615 59 248 0.0 2.0 0.01 0.07 0.07 87 1007.1
20260506014610 59 248 0.0 2.0 0.01 0.07 0.07 87 1007.8
20260506013104 59 248 0.0 2.0 0.00 0.06 0.06 85 1006.8
20260506013000 59 248 0.0 2.0 0.00 0.06 0.06 85 1007.7
20260506012501 59 233 0.0 1.0 0.00 0.06 0.06 85 1007.6
20260506012001 59 233 0.0 0.0 0.00 0.06 0.06 85 1007.6
20260506011501 59 233 0.0 0.0 0.00 0.06 0.06 86 1007.6
20260506010502 59 233 0.0 3.0 0.00 0.06 0.06 86 1007.4
20260506005500 59 230 0.0 2.0 0.00 0.06 0.06 86 1007.1
20260506005022 59 237 0.0 1.0 0.00 0.06 0.06 87 1007.1
20260506004606 59 237 0.0 2.0 0.00 0.06 0.06 86 1006.1
20260506004000 59 237 0.0 4.0 0.00 0.06 0.06 86 1007.0
20260506003100 60 233 0.0 3.0 0.00 0.06 0.06 85 1006.1
20260506002001 60 248 1.0 4.0 0.00 0.06 0.06 83 1007.2
20260506001605 60 238 0.0 4.0 0.00 0.06 0.06 83 1006.2
20260506000959 60 262 0.0 2.0 0.00 0.06 0.06 84 1007.0
20260506000122 60 271 0.0 3.0 0.00 0.06 0.06 83 1005.6
20260506000002 60 227 0.0 2.0 0.00 0.06 0.06 83 1006.6
20260505235500 60 227 0.0 2.0 0.00 0.06 0.06 83 1006.5
20260505235000 60 227 0.0 2.0 0.00 0.06 0.06 83 1006.4
20260505234606 60 228 0.0 2.0 0.00 0.06 0.06 83 1005.5
20260505233959 60 228 0.0 2.0 0.00 0.06 0.06 82 1006.4
20260505233459 60 228 0.0 2.0 0.00 0.06 0.06 83 1006.4
20260505233102 60 228 0.0 2.0 0.00 0.06 0.06 83 1005.5
20260505232616 60 228 0.0 2.0 0.00 0.06 0.06 84 1006.3
20260505232001 60 231 0.0 5.0 0.00 0.06 0.06 83 1006.3
20260505231613 60 231 1.0 5.0 0.00 0.06 0.06 82 1005.3
20260505231045 60 214 0.0 2.0 0.00 0.06 0.06 83 1006.2
20260505230459 60 229 0.0 3.0 0.00 0.06 0.06 83 1006.2
20260505230008 60 229 0.0 4.0 0.01 0.06 0.06 83 1005.2
20260505225500 60 196 1.0 8.0 0.01 0.06 0.06 84 1006.1
20260505224959 60 253 1.0 8.0 0.01 0.06 0.06 85 1006.1
20260505224055 59 196 0.0 3.0 0.01 0.06 0.06 89 1006.0
20260505223508 59 185 0.0 3.0 0.01 0.06 0.06 89 1005.8
20260505223104 59 245 0.0 3.0 0.01 0.06 0.06 88 1005.1
20260505222500 59 287 0.0 4.0 0.02 0.06 0.06 88 1006.2
20260505222000 59 302 0.0 4.0 0.03 0.06 0.06 87 1006.1
20260505221603 59 225 0.0 2.0 0.03 0.06 0.06 90 1005.4
20260505221000 59 279 0.0 3.0 0.03 0.06 0.06 89 1006.5
20260505220500 59 279 1.0 7.0 0.03 0.06 0.06 89 1006.5
20260505220101 59 276 0.0 7.0 0.02 0.05 0.05 88 1005.5
20260505220004 59 276 1.0 7.0 0.02 0.05 0.05 87 1006.6
20260505220002 59 276 1.0 7.0 0.02 0.05 0.05 87 1005.6
20260505215000 59 283 2.0 9.0 0.02 0.05 0.05 88 1007.0
20260505214559 59 284 1.0 9.0 0.02 0.05 0.05 89 1006.0
20260505213459 59 273 1.0 2.0 0.02 0.05 0.05 88 1006.4
20260505213059 60 273 0.0 4.0 0.02 0.05 0.05 87 1005.5
20260505212958 60 273 1.0 4.0 0.02 0.05 0.05 87 1006.7
20260505212458 60 273 2.0 7.0 0.01 0.04 0.04 84 1006.8
20260505211559 60 287 2.0 7.0 0.00 0.03 0.03 82 1005.2
20260505211459 60 275 2.0 7.0 0.00 0.03 0.03 82 1006.1
20260505211000 61 296 2.0 4.0 0.00 0.03 0.03 80 1005.9
20260505210507 62 314 2.0 5.0 0.00 0.03 0.03 78 1005.4
20260505210100 63 315 2.0 5.0 0.00 0.03 0.03 74 1004.2
20260505210001 64 315 2.0 5.0 0.00 0.03 0.03 72 1004.3
20260505205500 66 313 2.0 8.0 0.00 0.03 0.03 68 1005.2
20260505204603 70 302 4.0 10.0 0.00 0.03 0.03 57 1004.5
20260505204502 71 312 3.0 10.0 0.00 0.03 0.03 54 1005.4
20260505204000 73 264 2.0 9.0 0.00 0.03 0.03 43 1005.1
20260505203108 74 286 0.0 6.0 0.00 0.03 0.03 42 1003.2
20260505202959 74 287 1.0 6.0 0.00 0.03 0.03 41 1004.1
20260505201559 73 290 0.0 9.0 0.00 0.03 0.03 44 1003.0
20260505201458 73 290 1.0 9.0 0.00 0.03 0.03 44 1004.0
20260505200959 73 282 0.0 7.0 0.00 0.03 0.03 45 1004.0
20260505200059 72 278 0.0 4.0 0.00 0.03 0.03 46 1003.0
20260505195958 72 278 1.0 4.0 0.00 0.03 0.03 47 1003.8
20260505195501 72 182 0.0 4.0 0.00 0.03 0.03 47 1003.8
20260505194618 71 308 0.0 5.0 0.00 0.03 0.03 47 1002.9
20260505194459 71 308 1.0 7.0 0.00 0.03 0.03 47 1004.0
20260505193959 71 313 1.0 7.0 0.00 0.03 0.03 46 1004.0
20260505193105 73 256 3.0 10.0 0.00 0.03 0.03 41 1003.3
20260505193001 74 287 3.0 10.0 0.00 0.03 0.03 39 1004.4
20260505192459 74 221 2.0 10.0 0.00 0.03 0.03 39 1004.5
20260505191608 75 186 1.0 9.0 0.00 0.03 0.03 38 1003.1
20260505191501 75 136 2.0 9.0 0.00 0.03 0.03 38 1004.1
20260505190959 75 298 2.0 8.0 0.00 0.03 0.03 38 1004.1
20260505190100 75 242 2.0 10.0 0.00 0.03 0.03 38 1003.1
20260505185459 76 194 3.0 12.0 0.00 0.03 0.03 36 1004.0
20260505184558 77 201 2.0 13.0 0.00 0.03 0.03 36 1003.0
20260505184503 77 280 3.0 13.0 0.00 0.03 0.03 37 1002.9
20260505184501 77 280 2.0 13.0 0.00 0.03 0.03 37 1003.9
20260505183959 77 163 3.0 12.0 0.00 0.03 0.03 37 1004.1
20260505183501 76 256 3.0 12.0 0.00 0.03 0.03 37 1004.0
20260505183059 76 256 3.0 10.0 0.00 0.03 0.03 38 1003.2
20260505182958 76 267 2.0 10.0 0.00 0.03 0.03 38 1004.1